Terminal Aerodrome Forecast
Issued by NWS Des Moines, IA

Home | Current Version | Previous Version | Text Only | Print | Product List | Glossary On
Versions: 1 2 3 4 5 6 7 8 9 10 11 12 13 14 15 16 17 18 19 20 21 22 23 24 25 26 27 28 29 30 31 32
000
FTUS43 KDMX 290520
TAFDSM
TAF
KDSM 290520Z 2906/3006 31003KT P6SM SKC
     FM291500 30006KT P6SM SCT050
     FM292000 33008KT P6SM BKN050
     FM300100 28003KT P6SM FEW050=

USA.gov is the U.S. government's official web portal to all federal, state and local government web resources and services.